Location: B�di�
(14.6834°N, 3.1047°W)
Time: 18:05:04
(UTC+00:00)

Meteor 2-2 Rocket - Pass Details

Date: 24 January 2020
Orbit: 853 x 928 km, 81.3° (Epoch: 23 February)

Event Time Altitude Azimuth Distance (km) Brightness Sun altitude
Rises 19:34:50 0° 3° (N) 3,565 7.3 -21.1°
Reaches altitude 10° 19:37:24 10° 8° (N) 2,616 6.5 -21.7°
Maximum altitude 19:43:12 51° 83° (E) 1,132 4.4 -23.0°
Drops below altitude 10° 19:48:54 10° 158° (SSE) 2,576 6.6 -24.3°
Sets 19:51:24 0° 163° (SSE) 3,505 7.4 -24.9°
